Waarnemingen

Advertentie
Mijn weer
S. Maria Di Leuca, Italië (16360): temperatuur & dauwpunt: 15.02.2018 11:00:00 - 21.02.2018 11:00:00 (CET)S. Maria Di Leuca, Italië (16360): windsnelheid: 15.02.2018 11:00:00 - 21.02.2018 11:00:00 (CET)S. Maria Di Leuca, Italië (16360): windrichting: 15.02.2018 11:00:00 - 21.02.2018 11:00:00 (CET)S. Maria Di Leuca, Italië (16360): luchtdruk: 15.02.2018 11:00:00 - 21.02.2018 11:00:00 (CET)S. Maria Di Leuca, Italië (16360): zicht: 15.02.2018 11:00:00 - 21.02.2018 11:00:00 (CET)S. Maria Di Leuca, Italië (16360): Zonneschijnduur: 15.02.2018 11:00:00 - 21.02.2018 11:00:00 (CET)
Datum & Tijd tt [°C] td [°C] ff [km/u] ff [kn] dd ppp [hPa] vv [km] sd [min]
21.02.2018 11:00:00 9,2 6,5 16 9 Z 1001,3 10 0
21.02.2018 10:00:00 9,2 6,7 13 7 Z 1001,6 10 0
21.02.2018 09:00:00 9,8 7,4 15 8 Z 1001,3 12 0
21.02.2018 08:00:00 9,8 7,9 13 7 Z 1001,3 12 0
21.02.2018 07:00:00 10,4 8,8 16 9 Z 1000,2 12 0
21.02.2018 06:00:00 10,2 7,8 18 10 Z 1000,2 12 -
21.02.2018 05:00:00 10,8 9,2 22 12 Z 1000,3 12 -
21.02.2018 04:00:00 10,8 8,7 16 9 Z 1001,0 10 -
21.02.2018 03:00:00 10,0 8,4 16 9 Z 1001,2 12 -
21.02.2018 02:00:00 10,0 8,4 9 5 Z 1002,0 12 -
21.02.2018 01:00:00 10,0 8,1 9 5 ZZO 1002,0 12 -
21.02.2018 00:00:00 10,0 6,4 8 4 OZO 1002,0 12 -
20.02.2018 23:00:00 9,8 7,0 9 5 ZZO 1002,0 12 -
20.02.2018 22:00:00 9,8 7,4 8 4 O 1002,6 10 -
20.02.2018 21:00:00 9,8 7,0 9 5 WZW 1003,0 10 -
20.02.2018 20:00:00 9,8 6,9 0 0 N 1003,3 10 -
20.02.2018 19:00:00 10,2 7,1 0 0 N 1003,5 10 -
20.02.2018 18:00:00 10,2 6,9 4 2 O 1003,5 10 0
20.02.2018 17:00:00 10,2 7,1 5 3 OZO 1003,8 10 0
20.02.2018 16:00:00 10,4 7,8 5 3 ZZO 1004,2 10 0
20.02.2018 15:00:00 10,8 8,2 5 3 ZO 1004,5 10 0
20.02.2018 14:00:00 10,8 8,0 8 4 O 1005,1 10 0
20.02.2018 13:00:00 10,6 7,7 13 7 ONO 1005,8 10 0
20.02.2018 12:00:00 10,2 7,3 11 6 ONO 1006,5 10 0
20.02.2018 11:00:00 9,6 7,4 9 5 N 1007,0 8 0
20.02.2018 10:00:00 9,8 7,7 8 4 NNO 1007,3 8 0
20.02.2018 09:00:00 9,8 6,5 5 3 NNW 1007,4 8 0
20.02.2018 08:00:00 9,2 5,8 8 4 N 1007,6 12 0
20.02.2018 07:00:00 9,4 6,1 9 5 N 1007,6 12 0
20.02.2018 06:00:00 9,2 6,6 11 6 NNO 1008,0 12 -
20.02.2018 05:00:00 9,2 7,2 9 5 NNO 1008,4 12 -
20.02.2018 04:00:00 9,2 7,7 8 4 NNO 1009,1 12 -
20.02.2018 03:00:00 - - - - - - - -
20.02.2018 02:00:00 - - - - - - - -
20.02.2018 01:00:00 9,4 7,0 8 4 NNO 1009,9 12 -
20.02.2018 00:00:00 9,6 7,2 9 5 NNO 1009,9 12 -
19.02.2018 23:00:00 10,0 7,4 9 5 N 1010,3 12 -
19.02.2018 22:00:00 10,0 7,4 8 4 N 1010,3 12 -
19.02.2018 21:00:00 10,0 7,4 9 5 NNO 1010,3 12 -
19.02.2018 20:00:00 10,0 7,9 26 14 NNO 1010,3 12 -
19.02.2018 19:00:00 10,6 8,9 8 4 N 1010,2 12 -
19.02.2018 18:00:00 11,4 9,7 9 5 N 1010,2 12 0
19.02.2018 17:00:00 12,0 9,4 8 4 ONO 1010,1 12 30
19.02.2018 16:00:00 11,4 9,0 5 3 Z 1010,6 12 60
19.02.2018 15:00:00 11,2 8,4 5 3 WZW 1010,6 12 36
19.02.2018 14:00:00 11,2 7,9 11 6 ZW 1010,6 12 0
19.02.2018 13:00:00 11,2 7,7 5 3 ZZW 1010,6 12 0
19.02.2018 12:00:00 10,8 7,5 15 8 ZZO 1010,9 8 0
19.02.2018 11:00:00 10,8 7,7 18 10 ZO 1011,3 5 0
19.02.2018 10:00:00 9,8 6,2 13 7 OZO 1011,7 5 0
19.02.2018 09:00:00 9,8 6,2 9 5 ZO 1011,7 5 0
19.02.2018 08:00:00 9,8 6,2 8 4 Z 1011,5 5 0
19.02.2018 07:00:00 9,8 6,5 5 3 ZZO 1011,6 5 0
19.02.2018 06:00:00 9,8 6,5 9 5 ZO 1011,6 8 -
19.02.2018 05:00:00 9,8 6,3 11 6 ZZO 1011,8 8 -
19.02.2018 04:00:00 9,8 6,3 5 3 ZO 1012,1 10 -
19.02.2018 03:00:00 10,0 6,7 5 3 ZZO 1012,7 10 -
19.02.2018 02:00:00 10,0 6,9 8 4 ZZO 1013,2 10 -
19.02.2018 01:00:00 10,0 7,1 8 4 ZZW 1013,5 10 -
19.02.2018 00:00:00 10,4 8,5 8 4 Z 1013,7 10 -
18.02.2018 23:00:00 10,4 8,5 9 5 ZZW 1014,2 10 -
18.02.2018 22:00:00 10,4 8,3 11 6 ZZW 1014,5 10 -
18.02.2018 21:00:00 10,0 7,6 15 8 Z 1014,5 10 -
18.02.2018 20:00:00 10,0 7,6 15 8 Z 1014,5 10 -
18.02.2018 19:00:00 10,0 7,8 16 9 Z 1014,6 10 -
18.02.2018 18:00:00 10,2 8,0 13 7 ZZW 1014,6 12 -
18.02.2018 17:00:00 10,4 9,6 16 9 ZW 1014,9 12 0
18.02.2018 16:00:00 10,6 8,7 16 9 Z 1015,3 10 0
18.02.2018 15:00:00 10,6 9,0 15 8 Z 1015,5 15 0
18.02.2018 14:00:00 10,6 9,2 15 8 ZO 1015,9 15 0
18.02.2018 13:00:00 11,2 9,3 15 8 ZZW 1016,6 15 0
18.02.2018 12:00:00 11,2 8,2 16 9 ZZW 1017,1 15 12
18.02.2018 11:00:00 11,0 8,2 16 9 ZZW 1017,5 15 0
18.02.2018 10:00:00 11,0 8,9 16 9 Z 1017,6 15 0
18.02.2018 09:00:00 10,6 8,2 15 8 ZW 1017,7 15 0
18.02.2018 08:00:00 10,2 6,9 16 9 Z 1017,7 15 0
18.02.2018 07:00:00 9,8 7,2 11 6 Z 1017,7 15 0
18.02.2018 06:00:00 9,6 7,0 11 6 ZZW 1018,1 12 -
18.02.2018 05:00:00 9,6 7,4 13 7 Z 1018,5 12 -
18.02.2018 04:00:00 9,6 7,4 11 6 Z 1018,5 12 -
18.02.2018 03:00:00 9,6 7,4 11 6 Z 1018,7 12 -
18.02.2018 02:00:00 9,2 7,3 11 6 Z 1019,6 12 -
18.02.2018 01:00:00 9,2 7,3 11 6 Z 1019,8 12 -
18.02.2018 00:00:00 9,2 7,5 11 6 Z 1020,0 12 -
17.02.2018 23:00:00 9,0 6,6 11 6 Z 1020,5 12 -
17.02.2018 22:00:00 9,0 6,6 9 5 ZZW 1020,6 10 -
17.02.2018 21:00:00 9,0 6,6 8 4 ZZW 1020,5 12 -
17.02.2018 20:00:00 9,0 7,3 8 4 WZW 1020,5 12 -
17.02.2018 19:00:00 9,2 7,8 9 5 WZW 1020,5 12 -
17.02.2018 18:00:00 9,2 7,7 9 5 W 1020,5 12 0
17.02.2018 17:00:00 9,6 7,4 11 6 W 1020,5 15 18
17.02.2018 16:00:00 10,4 7,6 9 5 W 1020,5 15 60
17.02.2018 15:00:00 11,0 8,9 13 7 W 1020,5 15 60
17.02.2018 14:00:00 11,2 8,4 9 5 WZW 1020,6 15 60
17.02.2018 13:00:00 11,4 9,0 11 6 W 1021,2 15 60
17.02.2018 12:00:00 12,6 9,8 9 5 W 1022,4 15 60
17.02.2018 11:00:00 12,6 8,3 5 3 W 1022,5 15 60
17.02.2018 10:00:00 11,0 6,5 9 5 NNO 1022,6 15 60
17.02.2018 09:00:00 8,2 5,1 8 4 N 1022,7 15 60
17.02.2018 08:00:00 7,4 5,4 15 8 N 1022,7 15 0
17.02.2018 07:00:00 7,0 5,2 21 11 N 1022,7 15 0
17.02.2018 06:00:00 7,0 5,2 18 10 N 1022,8 12 -
17.02.2018 05:00:00 7,2 5,2 16 9 N 1022,8 12 -
17.02.2018 04:00:00 7,2 5,2 15 8 N 1022,8 12 -
17.02.2018 03:00:00 7,2 5,7 13 7 NNW 1022,8 12 -
17.02.2018 02:00:00 - - - - - - - -
17.02.2018 01:00:00 7,2 4,5 16 9 N 1022,8 12 -
17.02.2018 00:00:00 7,2 4,5 16 9 N 1022,8 12 -
16.02.2018 23:00:00 7,2 4,5 21 11 NNO 1022,8 12 -
16.02.2018 22:00:00 7,2 4,3 9 5 N 1022,8 10 -
16.02.2018 21:00:00 7,2 4,0 15 8 NNW 1022,7 12 -
16.02.2018 20:00:00 7,2 3,4 11 6 NNW 1022,7 12 -
16.02.2018 19:00:00 7,4 4,0 13 7 N 1022,9 15 -
16.02.2018 18:00:00 8,2 4,0 9 5 N 1022,4 15 0
16.02.2018 17:00:00 8,6 2,6 18 10 N 1022,0 20 60
16.02.2018 16:00:00 9,0 2,1 18 10 NNO 1021,7 20 60
16.02.2018 15:00:00 9,2 2,7 21 11 N 1021,7 20 60
16.02.2018 14:00:00 9,0 3,4 18 10 N 1021,6 20 60
16.02.2018 13:00:00 9,0 1,9 18 10 N 1022,0 20 60
16.02.2018 12:00:00 8,8 1,0 18 10 N 1022,1 20 60
16.02.2018 11:00:00 8,4 1,1 16 9 N 1022,0 20 60
16.02.2018 10:00:00 7,6 1,9 18 10 NNO 1021,4 20 60
16.02.2018 09:00:00 6,6 1,5 21 11 N 1021,2 20 60
16.02.2018 08:00:00 6,0 1,4 21 11 N 1021,1 20 60
16.02.2018 07:00:00 6,0 2,5 18 10 N 1019,9 20 0
16.02.2018 06:00:00 5,8 1,1 13 7 NW 1018,9 12 -
16.02.2018 05:00:00 5,8 0,8 11 6 NW 1018,7 12 -
16.02.2018 04:00:00 5,8 2,3 18 10 NNW 1018,5 10 -
16.02.2018 03:00:00 5,8 2,3 16 9 NNW 1018,5 12 -
16.02.2018 02:00:00 5,8 1,7 16 9 NNW 1018,3 12 -
16.02.2018 01:00:00 5,8 1,9 13 7 NNW 1017,9 12 -
16.02.2018 00:00:00 6,0 1,5 16 9 NNW 1017,5 12 -
15.02.2018 23:00:00 6,0 1,0 18 10 NNW 1016,6 12 -
15.02.2018 22:00:00 6,0 0,6 22 12 NNW 1016,4 10 -
15.02.2018 21:00:00 6,0 0,1 21 11 NNW 1015,8 12 -
15.02.2018 20:00:00 6,0 -0,1 26 14 N 1015,5 12 -
15.02.2018 19:00:00 6,0 -0,1 24 13 NNW 1015,2 10 -
15.02.2018 18:00:00 6,4 -0,8 22 12 N 1014,7 10 -
15.02.2018 17:00:00 7,0 -0,2 31 17 N 1013,6 10 60
15.02.2018 16:00:00 7,2 -0,8 39 21 N 1013,1 10 60
15.02.2018 15:00:00 7,4 -0,3 39 21 N 1012,3 10 12
15.02.2018 14:00:00 8,2 -0,8 34 18 NNO 1011,9 10 60
15.02.2018 13:00:00 8,2 1,1 37 20 NNO 1011,6 10 60
15.02.2018 12:00:00 8,0 3,5 31 17 NNO 1011,6 10 60
15.02.2018 11:00:00 7,0 3,4 34 18 NNO 1011,7 10 48

tt = temperatuur
td = dauwpunt
ff = windsnelheid
dd = windrichting
ppp = luchtdruk
vv = zicht
sd = Zonneschijnduur

Weerstations in de omgeving